Weather History for Wichita Falls, TX

Change the Weather History Date:

Tuesday, November 13, 2012

  Actual Average Record
Temperature  
Mean Temperature 44 °F 54 °F  
Max Temperature 59 °F 66 °F 85 °F (1955)
Min Temperature 28 °F 41 °F 18 °F (1940)
Degree Days  
Heating Degree Days 21 11  
Month to date heating degree days 84 121  
Since 1 July heating degree days 246 247  
Cooling Degree Days 0 0  
Month to date cooling degree days 26 10  
Year to date cooling degree days 2946 2386  
Moisture  
Dew Point 24 °F    
Average Humidity 52    
Maximum Humidity 85    
Minimum Humidity 19    
Precipitation  
Precipitation 0.00 in 0.06 in 1.40 in (1923)
Month to date precipitation 0.20 0.83  
Year to date precipitation 19.21 26.48  
Sea Level Pressure  
Sea Level Pressure 30.41 in    
Wind  
Wind Speed 7 mph (SSE)    
Max Wind Speed 18 mph    
Max Gust Speed 25 mph    
Visibility 10 miles    
Events      
T = Trace of Precipitation, MM = Missing Value Source: NWS Daily Summary

Daily Weather History Graph

Daily Weather History Graph

Search for Another Location

Airport:

Trip Planner

Search our weather history database for the weather conditions in past years. The results will help you decide how hot, cold, wet, or windy it might be!

Date:

Astronomy

Nov. 13, 2012 Rise Set
Actual Time 7:05 AM CST 5:31 PM CST
Civil Twilight 6:38 AM CST 5:57 PM CST
Nautical Twilight 6:08 AM CST 6:27 PM CST
Astronomical Twilight 5:38 AM CST 6:57 PM CST
Moon 6:44 AM CST (11/13) 5:27 PM CST (11/13)
Length of Visible Light 11h 19m
Length of Day
10h 26m
Waning Crescent, 0% of the Moon is Illuminated
Nov 13
Waning Crescent
Nov 13
New
Nov 20
First Quarter
Nov 28
Full
Dec 6
Last Quarter

Hourly Weather History & Observations

Time (CST) Temp. Windchill Dew Point Humidity Pressure Visibility Wind Dir Wind Speed Gust Speed Precip Events Conditions
12:52 AM 37.0 °F 32.4 °F 23.0 °F 57% 30.51 in 10.0 mi South 5.8 mph - N/A   Clear
1:52 AM 36.0 °F 33.3 °F 24.1 °F 62% 30.49 in 10.0 mi SSW 3.5 mph - N/A   Clear
2:52 AM 34.0 °F 31.0 °F 25.0 °F 70% 30.47 in 10.0 mi SSW 3.5 mph - N/A   Clear
3:52 AM 30.9 °F 27.5 °F 24.1 °F 76% 30.46 in 10.0 mi SE 3.5 mph - N/A   Clear
4:52 AM 30.0 °F 26.5 °F 25.0 °F 82% 30.46 in 10.0 mi South 3.5 mph - N/A   Clear
5:52 AM 28.0 °F - 23.0 °F 81% 30.47 in 10.0 mi Calm Calm - N/A   Clear
6:52 AM 28.9 °F - 24.1 °F 82% 30.48 in 10.0 mi Calm Calm - N/A   Clear
7:52 AM 32.0 °F - 25.0 °F 75% 30.49 in 10.0 mi Calm Calm - N/A   Partly Cloudy
8:52 AM 37.9 °F 34.4 °F 30.9 °F 76% 30.49 in 10.0 mi SSE 4.6 mph - N/A   Partly Cloudy
9:52 AM 46.9 °F - 30.0 °F 52% 30.48 in 10.0 mi SSE 9.2 mph - N/A   Partly Cloudy
10:52 AM 52.0 °F - 24.1 °F 34% 30.47 in 10.0 mi South 13.8 mph - N/A   Partly Cloudy
11:52 AM 55.0 °F - 21.9 °F 28% 30.43 in 10.0 mi SSE 12.7 mph - N/A   Partly Cloudy
12:52 PM 57.0 °F - 21.0 °F 25% 30.39 in 10.0 mi SSE 11.5 mph 17.3 mph N/A   Partly Cloudy
1:52 PM 57.9 °F - 21.0 °F 24% 30.35 in 10.0 mi SE 11.5 mph - N/A   Partly Cloudy
2:52 PM 59.0 °F - 19.0 °F 21% 30.32 in 10.0 mi South 11.5 mph - N/A   Partly Cloudy
3:52 PM 57.9 °F - 16.0 °F 19% 30.31 in 10.0 mi South 13.8 mph - N/A   Partly Cloudy
4:52 PM 55.9 °F - 18.0 °F 23% 30.29 in 10.0 mi SSE 12.7 mph - N/A   Scattered Clouds
5:52 PM 52.0 °F - 21.0 °F 30% 30.32 in 10.0 mi SSE 8.1 mph - N/A   Mostly Cloudy
6:52 PM 46.9 °F - 25.0 °F 42% 30.34 in 10.0 mi ESE 6.9 mph - N/A   Partly Cloudy
7:52 PM 44.1 °F 39.0 °F 25.0 °F 47% 30.35 in 10.0 mi SE 9.2 mph - N/A   Clear
8:52 PM 41.0 °F 36.4 °F 26.1 °F 55% 30.36 in 10.0 mi SE 6.9 mph - N/A   Clear
9:52 PM 42.1 °F 40.2 °F 25.0 °F 51% 30.36 in 10.0 mi SE 3.5 mph - N/A   Clear
10:52 PM 41.0 °F 39.0 °F 26.1 °F 55% 30.36 in 10.0 mi SE 3.5 mph - N/A   Clear
11:52 PM 39.9 °F 37.8 °F 26.1 °F 58% 30.36 in 10.0 mi SE 3.5 mph - N/A   Clear